Regional Weather Roundup
Issued by NWS

Home | Current Version | Previous Version | Graphics & Text | Print | Product List | Glossary On
Versions: 1 2 3 4 5 6 7 8 9 10 11 12 13 14 15 16 17 18 19 20 21 22 23 24 25 26 27 28
000
ASUS45 KSLC 240810
RWRUT

UTAH REGIONAL WEATHER ROUNDUP
NATIONAL WEATHER SERVICE SALT LAKE CITY UT
100 AM MST FRI NOV 24 2017

UTZ001>011-023>025-240900-

NORTHERN UTAH

CITY           SKY/WX    TMP DP  RH WIND       PRES   REMARKS
BRIGHAM CITY   PTCLDY    45  41  85 SE5       30.01F
HILL AFB       CLOUDY    52  39  60 SE8       30.01F
LOGAN          PTCLDY    45  40  82 NE7       29.98F
OGDEN          CLOUDY    51  42  71 S6        30.00F
SALT LAKE CITY CLOUDY    52  45  77 SE5       30.00F
TOOELE VALLEY  CLOUDY    45  43  93 CALM      30.00F FOG
WENDOVER       CLEAR     40  35  83 CALM      30.02F
HEBER CITY     DRIZZLE   43  36  75 CALM      30.08F
WEST JORDAN    CLOUDY    57  38  50 S7        30.02F

$$

UTZ011>015-024>027-240900-

CENTRAL/NORTHEAST UTAH

CITY           SKY/WX    TMP DP  RH WIND       PRES   REMARKS
PROVO AIRPORT  CLOUDY    50  39  66 CALM      30.05F
MOAB/CANYONLAN CLOUDY    34  23  64 CALM      30.10F
DELTA          CLOUDY    43  34  70 W3        30.08S
PRICE          PTCLDY    39  30  70 W5        30.14F
RICHFIELD      CLEAR     36  34  93 CALM      30.12F
ROOSEVELT      CLOUDY    32  27  80 SW5       30.10F WCI  27
VERNAL         CLOUDY    33  28  81 CALM      30.08F

$$

UTZ013>016-019>022-027-240900-

SOUTHERN UTAH

CITY           SKY/WX    TMP DP  RH WIND       PRES   REMARKS
BRYCE CANYON   MOCLDY    27  19  72 W6        30.24F WCI  20
CEDAR CITY     MOCLDY    43  22  43 E5        30.13F
MILFORD        CLOUDY    54  30  40 SW16      30.09F
ST GEORGE      CLOUDY    49  30  48 CALM      30.07F
HANKSVILLE     CLOUDY    32  19  59 CALM      30.15F
KANAB          CLEAR     37  25  60 E7        30.20F WCI  32
BLANDING         N/A     36  28  73 CALM      30.25S

$$

REGIONAL REPORTS     COLORADO/ARIZONA

CITY           SKY/WX    TMP DP  RH WIND       PRES   REMARKS
CRAIG, CO      CLOUDY    31  29  92 CALM      30.11F
GRAND JUNCTION CLOUDY    43  33  68 E3        30.14S
RIFLE, CO      CLOUDY    34  31  88 CALM      30.17S
MONTROSE, CO   CLOUDY    35  27  72 CALM      30.19F
CORTEZ, CO     CLOUDY    29  24  82 E7        30.21F WCI  22
COLORADO CITY    N/A     34  28  80 SE5       30.17F WCI  30
PAGE, AZ       MOCLDY    48  32  53 CALM      30.13F
GRAND CANYON   MOCLDY    27  13  55 CALM      30.26R
KINGMAN, AZ    CLEAR     50  28  42 SE7       30.07F
FLAGSTAFF, AZ  MOCLDY    29  23  78 CALM      30.26F

$$

REGIONAL REPORTS    NEVADA/IDAHO/WYOMING

CITY           SKY/WX    TMP DP  RH WIND       PRES   REMARKS
LAS VEGAS, NV  PTCLDY    60  37  42 SW5       30.00F
ELY, NY        CLOUDY    50  27  40 S9        30.15F
ELKO, NV       PTCLDY    43  35  73 E5        30.06F
POCATELLO, ID  CLEAR     51  39  63 SW17      29.95F
BURLEY, ID     PTCLDY    52  38  58 SW12      29.95F
FORT BRIDGER,    N/A     47  31  54 SW17G24   30.08F
EVANSTON, WY   CLOUDY    48  32  53 SW23G30   30.07F
ROCK SPRINGS,  CLOUDY    40  34  79 S7        30.04F
KEMMERER, WY   CLOUDY    39  32  75 SW17      30.04F WCI  30

$$




USA.gov is the U.S. government's official web portal to all federal, state and local government web resources and services.